TimeCDT,TemperatureF,Dew PointF,Humidity,Sea Level PressureIn,VisibilityMPH,Wind Direction,Wind SpeedMPH,Gust SpeedMPH,PrecipitationIn,Events,Conditions,WindDirDegrees,DateUTC
1:53 AM,46.0,37.9,73,30.09,10.0,Calm,Calm,-,N/A,,Clear,0,2013-03-12 06:53:00
2:53 AM,45.0,39.0,80,30.09,10.0,WNW,4.6,-,N/A,,Clear,300,2013-03-12 07:53:00
3:53 AM,42.1,37.0,82,30.09,10.0,Calm,Calm,-,N/A,,Clear,0,2013-03-12 08:53:00
4:53 AM,41.0,36.0,82,30.09,10.0,NNW,3.5,-,N/A,,Clear,340,2013-03-12 09:53:00
5:53 AM,43.0,36.0,76,30.10,10.0,NNW,3.5,-,N/A,,Clear,330,2013-03-12 10:53:00
6:53 AM,41.0,36.0,82,30.12,10.0,Calm,Calm,-,N/A,,Clear,0,2013-03-12 11:53:00
7:53 AM,43.0,37.9,82,30.15,10.0,Calm,Calm,-,N/A,,Clear,0,2013-03-12 12:53:00
8:53 AM,50.0,42.1,74,30.17,10.0,North,4.6,-,N/A,,Clear,360,2013-03-12 13:53:00
9:53 AM,55.9,37.0,49,30.19,10.0,NNE,6.9,-,N/A,,Clear,20,2013-03-12 14:53:00
10:53 AM,57.9,35.1,42,30.20,10.0,ENE,8.1,-,N/A,,Clear,60,2013-03-12 15:53:00
11:53 AM,61.0,34.0,36,30.21,10.0,NE,6.9,-,N/A,,Clear,40,2013-03-12 16:53:00
12:53 PM,63.0,36.0,37,30.20,10.0,NNW,5.8,-,N/A,,Clear,330,2013-03-12 17:53:00
1:53 PM,64.9,34.0,32,30.18,10.0,North,10.4,-,N/A,,Clear,350,2013-03-12 18:53:00
2:53 PM,66.0,34.0,30,30.16,10.0,NW,5.8,-,N/A,,Clear,320,2013-03-12 19:53:00
3:53 PM,68.0,36.0,31,30.14,10.0,North,9.2,-,N/A,,Clear,360,2013-03-12 20:53:00
4:53 PM,68.0,35.1,30,30.14,10.0,Variable,3.5,-,N/A,,Clear,0,2013-03-12 21:53:00
5:53 PM,66.9,37.0,33,30.15,10.0,North,6.9,-,N/A,,Clear,10,2013-03-12 22:53:00
6:53 PM,63.0,37.9,40,30.17,10.0,NNE,8.1,-,N/A,,Clear,30,2013-03-12 23:53:00
7:53 PM,57.9,37.0,46,30.19,10.0,North,5.8,-,N/A,,Clear,10,2013-03-13 00:53:00
8:53 PM,57.9,34.0,41,30.21,10.0,North,6.9,-,N/A,,Clear,350,2013-03-13 01:53:00
9:53 PM,57.0,35.1,44,30.23,10.0,NNE,4.6,-,N/A,,Clear,20,2013-03-13 02:53:00
10:53 PM,57.0,37.9,49,30.24,10.0,NNE,3.5,-,N/A,,Clear,30,2013-03-13 03:53:00
11:53 PM,51.1,41.0,68,30.25,10.0,NNW,3.5,-,N/A,,Clear,340,2013-03-13 04:53:00